Temp
-9 -9 -8 -8 -8 -8 -8 -8 -8 -8 -8 -8 -8 -8 -8 -9 -9 -8 -9 -9 -9 -9 -9 -9 -9 -9 -9 -9 -9 -9 -9 -9 -9 -10 -10 -10 -9 -9 -9 -9 -9 -10 -10 -10 -10
-9 -9 -9 -8 -8 -8 -8 -8 -8 -8 -8 -8 -8 -8 -8 -8 -8 -8 -9 -9 -9 -9 -9 -9 -9 -9 -9 -9 -9 -9 -9 -9 -9 -9 -9 -10 -10 -9 -9 -10 -9 -9 -9 -10 -10
-9 -9 -9 -9 -9 -8 -8 -8 -8 -8 -8 -8 -8 -8 -8 -8 -8 -9 -8 -8 -9 -9 -9 -9 -9 -9 -9 -9 -9 -9 -10 -9 -10 -9 -9 -9 -9 -10 -10 -10 -10 -9 -9 -9 -10
-9 -9 -9 -9 -9 -9 -9 -8 -8 -8 -8 -8 -8 -8 -8 -8 -9 -9 -9 -9 -9 -9 -9 -9 -9 -9 -9 -9 -9 -9 -10 -10 -9 -9 -10 -10 -9 -9 -9 -11 -10 -10 -9 -10 -10
-9 -9 -9 -9 -9 -9 -9 -9 -9 -9 -8 -8 -8 -8 -9 -9 -9 -9 -9 -9 -9 -9 -9 -9 -9 -9 -9 -9 -9 -9 -9 -10 -10 -10 -10 -10 -10 -9 -10 -11 -10 -10 -10 -10 -10
-9 -9 -9 -9 -9 -9 -9 -9 -9 -9 -9 -9 -9 -9 -9 -9 -9 -9 -9 -10 -10 -10 -10 -10 -10 -10 -10 -10 -10 -9 -9 -10 -10 -10 -11 -10 -10 -10 -11 -10 -11 -10 -10 -10 -10
-9 -9 -9 -9 -9 -9 -9 -9 -9 -9 -9 -9 -9 -9 -9 -9 -9 -9 -10 -10 -10 -10 -10 -10 -10 -10 -10 -10 -10 -10 -10 -10 -10 -11 -11 -10 -9 -10 -11 -11 -11 -11 -11 -10 -10
-10 -10 -9 -9 -9 -10 -9 -9 -9 -9 -9 -9 -9 -9 -9 -10 -10 -10 -10 -10 -10 -10 -10 -10 -10 -10 -10 -10 -9 -10 -10 -10 -11 -11 -11 -10 -9 -10 -11 -11 -10 -11 -11 -11 -11
-10 -10 -10 -10 -10 -10 -10 -10 -9 -9 -9 -9 -9 -9 -9 -10 -10 -10 -10 -10 -10 -10 -10 -10 -10 -10 -11 -10 -10 -10 -11 -11 -10 -10 -10 -11 -10 -10 -10 -10 -10 -10 -11 -11 -11
-11 -11 -10 -10 -10 -10 -10 -10 -10 -10 -10 -10 -10 -10 -10 -10 -10 -11 -11 -10 -10 -10 -10 -10 -10 -11 -11 -10 -10 -11 -10 -10 -11 -10 -10 -10 -10 -10 -10 -9 -9 -10 -10 -11 -11
-11 -11 -11 -11 -11 -11 -11 -10 -10 -10 -10 -10 -10 -10 -10 -10 -10 -10 -10 -10 -10 -10 -11 -11 -10 -10 -11 -11 -11 -11 -10 -10 -10 -11 -11 -10 -10 -9 -10 -9 -9 -10 -10 -10 -10
-11 -11 -11 -11 -11 -11 -11 -11 -11 -10 -10 -10 -10 -10 -10 -10 -10 -11 -11 -11 -11 -11 -11 -10 -10 -11 -11 -11 -11 -11 -10 -10 -11 -12 -11 -10 -9 -9 -9 -9 -9 -9 -10 -10 -10
-11 -11 -12 -11 -11 -11 -11 -11 -11 -11 -10 -10 -11 -10 -11 -11 -10 -11 -11 -11 -11 -11 -11 -11 -10 -11 -11 -11 -11 -11 -11 -11 -11 -11 -10 -9 -7 -8 -9 -9 -10 -9 -9 -10 -10
-12 -12 -12 -12 -12 -12 -12 -12 -12 -11 -10 -10 -10 -11 -11 -11 -10 -11 -12 -12 -11 -11 -11 -10 -11 -11 -11 -11 -12 -11 -12 -11 -11 -11 -10 -10 -5 -6 -8 -9 -9 -10 -10 -10 -10
-12 -13 -13 -12 -12 -12 -12 -12 -12 -12 -11 -11 -10 -10 -11 -11 -11 -11 -12 -12 -11 -12 -12 -10 -11 -11 -11 -11 -12 -11 -12 -12 -11 -11 -10 -9 -9 -7 -8 -8 -8 -9 -9 -10 -10
-13 -12 -13 -13 -13 -13 -13 -12 -13 -12 -12 -11 -11 -12 -11 -11 -11 -11 -11 -12 -12 -11 -11 -10 -11 -10 -11 -12 -12 -12 -12 -12 -12 -11 -9 -9 -10 -5 -8 -8 -8 -9 -9 -9 -10
-14 -13 -14 -14 -14 -13 -13 -13 -13 -12 -11 -12 -12 -12 -12 -12 -12 -12 -11 -12 -12 -12 -11 -11 -10 -11 -11 -11 -12 -13 -13 -14 -13 -13 -10 -10 -10 -7 -8 -8 -9 -9 -9 -9 -9
-14 -14 -14 -14 -14 -14 -14 -14 -13 -12 -12 -12 -12 -12 -12 -12 -12 -12 -11 -11 -12 -13 -13 -12 -10 -12 -12 -13 -12 -13 -13 -14 -14 -12 -12 -12 -9 -7 -9 -10 -10 -10 -11 -11 -11
-13 -14 -14 -14 -15 -14 -14 -13 -13 -12 -12 -12 -13 -12 -12 -12 -13 -13 -13 -12 -13 -14 -15 -15 -12 -13 -14 -15 -15 -13 -13 -14 -14 -13 -13 -12 -11 -10 -10 -11 -11 -11 -11 -11 -11
-13 -13 -13 -15 -15 -15 -14 -13 -13 -13 -14 -14 -14 -13 -13 -13 -14 -13 -13 -12 -12 -13 -16 -16 -16 -13 -15 -15 -14 -15 -15 -15 -15 -16 -15 -13 -12 -11 -11 -10 -11 -12 -12 -11 -11
-15 -14 -13 -16 -17 -17 -15 -14 -13 -14 -14 -15 -15 -15 -14 -14 -14 -15 -15 -14 -14 -15 -15 -17 -18 -14 -16 -15 -16 -16 -16 -15 -17 -16 -16 -16 -15 -12 -13 -12 -12 -13 -12 -12 -14
-16 -16 -15 -16 -17 -17 -16 -16 -16 -15 -16 -16 -16 -15 -15 -15 -15 -15 -15 -14 -14 -16 -16 -17 -18 -18 -16 -16 -17 -17 -16 -16 -16 -16 -17 -17 -17 -14 -13 -13 -13 -13 -13 -14 -15
-17 -16 -17 -17 -17 -17 -17 -17 -17 -17 -17 -17 -17 -17 -17 -16 -17 -16 -16 -16 -16 -17 -17 -18 -19 -19 -18 -17 -16 -17 -17 -17 -17 -18 -18 -17 -16 -15 -15 -14 -14 -13 -15 -15 -16
-18 -18 -17 -18 -17 -18 -17 -17 -17 -17 -17 -18 -18 -18 -17 -18 -17 -18 -17 -17 -17 -17 -18 -19 -19 -19 -19 -18 -18 -18 -18 -18 -18 -19 -18 -17 -17 -16 -15 -14 -14 -16 -16 -16 -16
-20 -19 -19 -18 -19 -19 -19 -19 -19 -18 -19 -18 -18 -19 -19 -19 -18 -18 -19 -19 -18 -18 -18 -20 -21 -20 -19 -19 -19 -19 -18 -18 -18 -18 -19 -18 -18 -17 -16 -15 -16 -16 -17 -16 -17
-21 -21 -21 -21 -21 -20 -20 -20 -21 -20 -21 -20 -20 -20 -20 -20 -21 -20 -21 -21 -21 -21 -21 -21 -20 -21 -20 -21 -21 -20 -20 -19 -18 -18 -18 -19 -20 -19 -18 -19 -19 -18 -18 -18 -18
-22 -22 -22 -22 -22 -22 -22 -22 -23 -22 -22 -22 -22 -22 -22 -22 -22 -22 -22 -22 -22 -22 -22 -22 -21 -21 -22 -22 -21 -21 -20 -20 -20 -20 -20 -20 -20 -21 -21 -21 -21 -20 -19 -18 -17
Height
5884 5885 5886 5886 5887 5888 5888 5888 5888 5888 5888 5888 5887 5887 5887 5887 5886 5885 5885 5885 5884 5883 5882 5881 5880 5879 5878 5877 5876 5875 5874 5872 5871 5870 5869 5867 5866 5865 5864 5863 5862 5860 5858 5856 5854
5880 5880 5881 5882 5883 5883 5884 5884 5884 5884 5884 5884 5884 5884 5883 5883 5883 5882 5882 5881 5880 5880 5879 5878 5877 5876 5875 5874 5872 5871 5870 5869 5868 5866 5865 5865 5863 5862 5861 5859 5859 5857 5855 5854 5852
5875 5876 5876 5877 5878 5878 5879 5879 5879 5879 5879 5879 5879 5879 5879 5879 5878 5877 5876 5876 5876 5875 5874 5873 5872 5871 5870 5869 5867 5868 5866 5863 5863 5862 5860 5860 5858 5857 5856 5853 5854 5853 5851 5849 5848
5870 5871 5871 5872 5872 5873 5873 5874 5873 5873 5873 5873 5873 5873 5874 5874 5874 5871 5871 5870 5870 5869 5868 5867 5867 5865 5864 5863 5860 5862 5860 5857 5858 5855 5854 5853 5852 5851 5852 5848 5847 5846 5846 5845 5843
5863 5863 5864 5865 5866 5867 5867 5867 5867 5867 5867 5867 5866 5866 5867 5870 5866 5865 5864 5863 5863 5862 5861 5860 5859 5857 5858 5856 5853 5855 5855 5851 5850 5849 5847 5844 5844 5844 5847 5839 5838 5840 5840 5839 5838
5854 5855 5856 5857 5858 5859 5859 5860 5860 5860 5860 5860 5860 5859 5861 5865 5861 5858 5857 5857 5856 5855 5854 5853 5851 5849 5849 5849 5846 5847 5846 5845 5844 5843 5839 5836 5838 5836 5840 5833 5833 5832 5833 5832 5832
5847 5848 5848 5849 5851 5851 5852 5852 5853 5852 5851 5851 5851 5850 5853 5857 5855 5853 5851 5850 5849 5848 5847 5845 5842 5839 5839 5841 5838 5836 5836 5837 5840 5836 5828 5826 5831 5833 5829 5825 5826 5824 5824 5823 5824
5838 5839 5839 5841 5842 5843 5843 5844 5845 5844 5844 5843 5842 5841 5844 5848 5846 5846 5844 5844 5842 5841 5840 5837 5833 5829 5831 5832 5827 5827 5826 5828 5834 5827 5819 5815 5821 5827 5820 5816 5818 5817 5816 5813 5814
5830 5830 5831 5832 5833 5834 5834 5835 5836 5836 5836 5835 5833 5832 5836 5839 5839 5837 5837 5837 5835 5835 5832 5829 5824 5821 5824 5824 5818 5821 5813 5814 5819 5820 5811 5807 5806 5819 5814 5809 5809 5808 5807 5806 5806
5821 5822 5823 5824 5824 5825 5826 5826 5826 5827 5827 5826 5824 5825 5826 5828 5829 5829 5829 5827 5827 5825 5823 5821 5814 5812 5819 5817 5808 5808 5800 5803 5805 5815 5803 5794 5794 5802 5805 5801 5801 5801 5799 5798 5797
5811 5812 5813 5814 5815 5815 5817 5817 5818 5817 5817 5817 5815 5815 5815 5817 5818 5821 5820 5819 5817 5815 5815 5810 5804 5810 5812 5806 5801 5796 5795 5791 5797 5802 5789 5785 5777 5783 5792 5791 5792 5790 5791 5789 5787
5800 5801 5801 5803 5803 5804 5805 5805 5805 5805 5804 5805 5806 5803 5806 5806 5806 5809 5810 5808 5806 5806 5805 5801 5794 5805 5800 5798 5794 5790 5786 5784 5783 5789 5777 5769 5764 5768 5773 5782 5784 5781 5782 5781 5779
5788 5789 5789 5790 5791 5793 5793 5794 5794 5793 5791 5792 5795 5793 5795 5796 5796 5798 5797 5794 5792 5792 5796 5789 5789 5792 5789 5787 5786 5784 5778 5777 5770 5770 5766 5759 5743 5756 5763 5767 5773 5774 5772 5771 5769
5774 5776 5776 5776 5779 5779 5780 5781 5782 5784 5777 5774 5779 5784 5786 5786 5785 5783 5781 5782 5781 5782 5781 5776 5783 5780 5778 5775 5779 5768 5774 5766 5763 5758 5750 5755 5724 5744 5754 5756 5760 5760 5760 5760 5759
5760 5762 5763 5764 5764 5766 5769 5769 5770 5774 5756 5761 5764 5769 5774 5775 5773 5773 5771 5771 5771 5771 5770 5770 5769 5768 5767 5770 5764 5761 5760 5758 5756 5750 5743 5736 5733 5728 5738 5741 5742 5745 5746 5748 5748
5747 5748 5750 5750 5750 5752 5753 5755 5758 5758 5739 5749 5752 5756 5760 5761 5759 5758 5758 5757 5756 5756 5756 5759 5759 5755 5756 5754 5751 5748 5746 5746 5742 5739 5731 5737 5736 5714 5722 5724 5727 5731 5735 5734 5734
5735 5734 5734 5736 5739 5739 5738 5740 5743 5732 5737 5740 5742 5743 5741 5742 5744 5744 5745 5744 5742 5740 5742 5741 5740 5740 5738 5737 5738 5737 5733 5726 5720 5720 5723 5726 5724 5714 5713 5712 5714 5712 5711 5718 5719
5720 5721 5721 5725 5727 5724 5725 5726 5719 5723 5729 5729 5730 5730 5726 5726 5726 5725 5727 5731 5731 5728 5725 5723 5729 5728 5729 5725 5723 5720 5718 5712 5702 5707 5706 5708 5698 5702 5707 5706 5702 5697 5696 5696 5697
5703 5704 5708 5708 5709 5709 5711 5708 5704 5709 5714 5717 5715 5712 5714 5711 5710 5708 5709 5712 5711 5711 5706 5701 5706 5707 5707 5708 5708 5707 5700 5704 5684 5688 5681 5686 5689 5693 5693 5690 5689 5690 5685 5683 5683
5681 5685 5693 5686 5685 5689 5688 5692 5693 5698 5698 5696 5697 5696 5696 5695 5691 5691 5692 5699 5696 5695 5688 5684 5678 5694 5689 5691 5689 5685 5687 5679 5670 5662 5659 5665 5667 5669 5683 5679 5677 5675 5668 5667 5667
5663 5664 5674 5667 5660 5659 5667 5680 5684 5684 5682 5678 5679 5676 5681 5677 5672 5673 5672 5676 5679 5677 5675 5664 5658 5673 5665 5671 5676 5669 5659 5659 5652 5646 5637 5633 5640 5671 5662 5662 5660 5661 5655 5652 5651
5647 5649 5654 5649 5645 5642 5648 5656 5660 5665 5663 5657 5653 5654 5656 5662 5655 5651 5652 5659 5661 5658 5653 5646 5637 5635 5648 5653 5650 5642 5640 5641 5631 5630 5623 5614 5612 5655 5658 5646 5643 5643 5641 5639 5637
5629 5632 5633 5630 5627 5630 5633 5639 5638 5645 5641 5635 5631 5633 5636 5635 5628 5634 5635 5645 5640 5636 5636 5635 5617 5610 5609 5630 5634 5620 5628 5623 5619 5609 5598 5593 5594 5638 5636 5637 5636 5628 5623 5621 5616
5611 5612 5613 5610 5614 5611 5614 5616 5616 5626 5620 5614 5612 5614 5612 5610 5613 5603 5610 5617 5618 5614 5614 5607 5599 5593 5590 5601 5612 5602 5605 5608 5601 5586 5581 5574 5579 5600 5618 5619 5626 5615 5606 5605 5600
5592 5591 5591 5591 5595 5592 5594 5593 5598 5599 5595 5600 5593 5593 5590 5589 5591 5587 5589 5589 5593 5594 5595 5587 5577 5577 5576 5581 5585 5581 5582 5584 5577 5572 5561 5561 5557 5569 5586 5594 5595 5589 5589 5581 5579
5568 5570 5571 5573 5573 5571 5573 5576 5576 5577 5574 5577 5573 5570 5570 5569 5565 5564 5565 5569 5571 5578 5575 5573 5561 5556 5549 5558 5559 5556 5556 5555 5555 5553 5545 5544 5534 5549 5552 5558 5560 5566 5563 5552 5548
5549 5550 5548 5554 5552 5550 5553 5552 5556 5552 5553 5554 5554 5548 5552 5549 5543 5545 5544 5547 5545 5549 5558 5551 5543 5538 5525 5539 5532 5525 5537 5536 5531 5532 5530 5519 5522 5525 5521 5525 5533 5535 5521 5518 5521
Wind_Speed
17 17 17 16 16 16 15 15 15 16 15 16 15 16 17 16 17 17 17 17 18 18 19 20 20 20 20 20 20 20 20 19 18 17 15 14 15 14 13 13 13 12 14 13 12
23 23 23 23 23 22 22 21 21 21 21 20 20 21 21 20 22 23 21 23 23 23 24 25 26 26 26 26 26 26 25 25 24 24 23 21 19 17 16 15 14 14 16 14 15
30 29 29 28 28 28 28 28 28 28 27 27 26 26 25 26 26 26 27 27 27 27 29 29 29 30 30 30 32 30 29 31 28 28 28 27 26 23 19 18 18 17 17 18 18
36 36 35 34 34 33 33 32 33 32 32 31 31 29 28 27 29 31 30 31 31 31 32 33 33 33 33 32 34 32 31 34 31 33 31 29 30 29 26 19 23 23 20 20 22
38 38 38 38 37 37 36 35 35 34 33 33 33 32 31 27 30 32 31 32 32 33 33 34 35 37 36 37 38 36 34 36 34 35 32 34 32 32 25 27 31 28 23 24 24
38 38 38 38 37 37 36 36 35 35 34 35 34 34 31 26 30 32 33 32 33 34 34 35 36 38 37 35 38 36 35 33 34 33 35 39 35 35 26 33 32 32 30 29 27
39 39 40 40 39 38 38 38 37 36 35 34 35 36 34 30 32 34 34 33 34 35 35 36 39 40 38 34 36 36 35 33 26 28 37 42 33 27 30 36 34 35 37 37 32
43 42 42 41 40 39 39 38 36 36 37 39 40 40 36 32 34 34 36 36 36 37 36 37 38 40 37 35 40 38 38 34 22 29 38 43 32 24 33 38 35 38 39 41 40
45 45 44 43 42 42 42 41 41 42 42 44 45 46 43 39 36 39 39 38 38 37 38 38 41 42 36 36 42 37 42 39 33 31 40 42 43 27 32 36 35 35 37 40 40
48 47 47 46 46 46 46 46 47 47 47 48 49 49 47 44 41 38 38 39 39 39 39 40 44 44 36 37 44 42 49 45 42 30 42 48 47 39 36 39 37 32 28 31 35
52 51 51 51 51 51 51 51 52 53 51 51 54 53 50 47 45 40 39 39 40 41 40 43 47 41 34 37 42 47 49 51 44 37 48 51 56 51 41 39 35 36 31 27 29
52 52 52 51 51 52 52 53 55 55 56 55 53 53 51 50 48 44 42 43 44 44 43 45 49 39 43 43 45 47 49 49 47 41 51 55 58 56 52 42 37 37 33 31 28
52 51 50 51 53 53 53 53 54 54 55 54 53 53 52 51 48 46 44 46 46 45 44 48 49 47 46 45 45 45 49 49 54 50 51 54 60 55 50 43 37 35 34 34 34
55 55 54 54 53 54 53 51 52 55 57 60 56 51 49 47 48 47 44 41 42 38 36 42 35 39 43 45 40 51 44 51 54 57 59 52 57 48 48 46 41 39 37 35 36
58 58 59 59 59 58 57 56 55 53 61 58 55 49 42 42 43 41 40 39 41 42 42 44 44 46 48 46 49 52 50 51 53 59 62 62 63 60 52 45 42 38 38 33 32
66 64 66 68 65 63 59 59 52 58 66 62 58 51 48 47 46 49 50 48 46 50 51 49 49 53 53 53 50 53 51 51 56 58 66 59 60 60 59 58 57 55 49 46 42
52 48 40 43 51 52 56 53 52 58 61 59 57 52 54 52 53 53 55 58 56 56 57 57 58 59 58 59 58 53 55 57 61 62 66 63 61 63 64 65 67 66 65 61 54
45 50 44 44 43 43 49 50 59 61 49 51 51 54 57 58 60 63 63 66 63 61 63 65 64 61 60 59 62 64 64 66 66 70 71 67 75 66 65 67 67 69 71 68 65
63 60 58 54 53 55 59 61 59 57 55 58 55 61 59 65 68 70 70 70 72 69 66 65 71 68 64 57 55 63 65 61 69 67 71 73 75 72 69 68 68 68 70 72 69
79 74 68 68 69 59 69 68 71 64 66 67 67 66 67 69 74 76 77 73 77 74 69 68 71 71 70 66 68 63 60 62 67 71 71 74 73 78 69 68 64 63 66 68 69
80 79 76 74 71 75 71 66 66 67 73 76 72 73 72 75 78 79 80 81 79 80 76 72 67 78 77 75 68 66 63 62 58 64 71 72 70 58 52 53 58 61 69 68 63
73 73 73 73 74 77 77 75 71 69 74 76 76 76 80 78 81 82 84 85 83 79 78 76 78 79 80 72 62 66 66 66 70 66 66 65 62 46 42 50 58 62 63 65 65
74 75 74 74 77 75 72 72 72 70 74 78 78 77 77 80 82 84 82 79 76 76 74 72 73 76 77 79 78 73 64 59 63 66 73 78 79 57 48 38 39 48 47 57 56
73 74 76 75 75 75 75 75 75 72 73 74 76 76 78 79 78 79 82 78 76 76 75 71 73 80 81 80 78 84 83 83 84 87 89 95 95 89 80 82 57 68 57 55 50
69 71 73 74 71 71 69 73 73 72 74 73 75 75 77 79 80 81 78 78 81 78 72 62 70 74 76 75 77 78 80 82 88 92 95 95 94 91 82 78 73 73 74 67 67
69 66 67 67 68 70 68 68 66 65 69 71 72 72 72 73 72 73 72 67 68 66 62 58 61 75 80 73 70 70 69 72 75 80 87 87 86 76 74 60 57 63 59 63 68
65 67 68 67 66 65 65 65 65 65 67 66 68 71 70 71 73 73 72 72 75 76 72 75 78 83 91 74 81 80 73 56 54 57 62 70 70 61 56 53 53 58 69 72 76
Wind_Direction
248 249 254 262 268 270 272 277 279 283 287 291 291 285 285 286 288 288 290 292 293 295 297 299 299 300 301 304 308 311 314 318 321 324 325 324 320 320 318 320 329 333 335 327 324
254 255 258 264 269 272 274 276 279 279 280 280 280 285 287 285 286 286 289 287 288 289 291 290 292 294 296 299 300 301 303 303 307 308 309 310 309 310 310 305 309 309 311 312 315
262 262 263 264 268 271 274 277 281 282 281 280 280 279 276 281 283 285 284 285 286 287 287 287 289 290 290 291 291 294 296 297 299 298 299 300 300 298 300 294 294 298 297 303 303
262 265 267 269 270 270 271 274 275 277 279 280 279 278 278 280 283 282 285 285 286 286 287 288 288 288 288 289 289 293 293 292 295 294 293 291 290 290 298 282 282 286 287 291 293
259 261 263 266 268 270 271 272 274 275 275 277 278 279 279 282 282 284 285 287 286 286 287 288 288 287 288 288 287 291 288 290 290 292 290 285 285 288 296 271 282 287 282 281 284
258 260 262 262 263 265 268 270 272 273 275 276 277 278 278 282 280 284 285 286 288 288 288 290 289 288 288 290 291 290 288 284 286 290 286 284 282 289 286 281 281 283 280 278 277
259 261 262 263 264 266 267 267 268 270 270 270 272 273 275 277 277 279 281 283 285 285 286 286 287 287 287 291 290 290 289 290 298 286 282 279 284 289 281 279 279 279 279 278 276
259 259 260 262 263 265 266 266 264 265 267 271 273 273 274 272 273 272 274 277 280 284 284 283 283 283 286 289 289 289 291 292 275 271 275 280 287 282 277 280 281 279 276 277 278
258 259 260 261 261 262 262 263 263 263 265 267 270 273 274 272 270 273 276 278 279 283 283 284 281 279 282 287 286 294 291 283 277 280 284 283 284 281 275 277 281 282 272 272 276
260 261 261 262 263 263 263 263 263 264 265 268 270 273 274 274 272 271 273 275 278 278 279 281 279 278 284 288 287 284 282 285 287 288 281 281 281 279 275 277 279 283 283 270 270
262 262 264 264 265 265 266 266 267 267 267 268 272 272 274 274 274 274 274 274 273 273 277 275 275 285 290 280 279 281 283 285 291 292 284 281 279 279 274 271 280 282 284 283 280
262 263 264 265 266 267 267 268 270 270 272 271 271 274 274 276 276 276 274 273 271 272 272 276 275 283 278 278 278 279 283 285 285 288 279 282 281 282 283 282 278 278 278 279 281
262 262 263 266 267 268 270 269 270 270 274 272 270 272 272 274 275 276 274 272 269 268 273 271 276 276 276 275 276 278 280 286 283 280 273 281 283 285 285 290 287 282 276 276 274
259 260 263 266 267 269 272 270 269 271 272 270 268 267 270 272 275 275 274 270 269 271 268 268 274 272 275 276 279 274 278 275 279 281 282 275 292 284 289 289 289 281 275 271 273
258 260 262 265 267 267 269 270 271 273 268 269 272 272 272 271 271 268 271 271 274 273 275 278 274 272 273 277 275 277 277 275 274 276 277 279 286 297 296 293 284 280 272 268 270
262 261 266 266 265 266 266 269 267 267 264 270 272 275 273 273 273 275 278 275 274 274 275 276 275 277 278 276 272 277 279 278 274 273 272 279 286 291 295 290 294 290 283 281 275
257 252 254 262 258 260 260 259 259 259 268 267 270 278 278 274 272 272 274 276 279 277 277 277 278 283 284 282 282 280 277 276 274 274 278 280 276 283 285 291 290 289 288 287 283
241 238 250 255 261 246 248 253 255 264 268 276 275 278 277 278 280 277 275 274 276 277 276 275 273 273 275 277 277 278 279 278 280 282 280 275 276 286 286 285 285 286 288 290 288
249 245 250 265 266 265 257 253 262 264 269 277 277 274 275 275 276 277 276 276 277 281 282 283 279 283 281 279 277 279 277 278 273 271 271 274 277 280 284 282 282 284 284 285 287
268 265 255 270 276 267 255 254 255 262 270 273 269 274 272 272 271 271 273 275 275 279 283 284 282 280 280 285 284 285 282 275 271 270 269 274 276 280 285 289 290 283 280 280 280
271 273 270 275 274 276 270 260 262 262 267 269 268 266 267 269 272 272 273 275 278 280 281 282 281 279 281 281 285 280 271 267 268 271 275 273 268 286 284 287 276 277 278 279 284
267 268 268 269 269 272 277 280 276 273 268 268 270 269 269 266 268 272 272 272 276 279 279 278 278 276 276 277 277 265 264 266 269 273 275 275 270 284 273 267 270 273 278 281 279
266 267 266 267 267 270 270 267 266 267 268 270 271 272 272 271 273 271 273 275 275 276 278 279 275 276 276 273 270 268 272 275 269 270 271 275 277 282 270 268 274 270 288 287 281
266 266 265 267 268 270 271 270 269 267 267 270 271 272 273 274 274 277 275 275 273 272 272 271 269 270 271 273 273 270 269 268 268 270 274 276 281 282 278 280 273 274 278 279 279
264 264 265 267 268 268 268 269 270 271 270 268 269 270 270 273 273 273 275 275 276 277 276 275 274 274 273 276 275 274 272 272 272 274 274 278 277 281 282 278 277 270 270 273 270
272 270 269 269 268 269 270 271 270 269 268 268 270 271 272 272 273 273 271 266 267 267 267 266 272 269 273 281 280 280 274 270 270 272 275 279 282 286 285 284 274 271 265 265 261
268 269 270 270 272 274 274 274 275 273 272 273 273 273 273 273 271 271 269 268 269 268 266 260 263 270 276 274 270 264 267 272 273 273 276 276 283 282 271 261 259 258 252 249 252